Temperature
18 18 19 20 19 19 20 22 25 26 25 26 25 25 24 25 24 21 20 20 20 20 20 19 19 18 17 16 15 15 15 14 14 14 14 14 14 13 14 14 14 14 14 14 14 14 14 14 14
18 18 19 20 19 19 21 23 25 25 25 24 24 25 25 26 24 21 20 20 19 20 20 19 19 17 16 16 15 15 15 14 14 13 13 13 13 13 14 14 14 14 14 14 14 14 15 15 14
18 18 19 19 19 19 21 24 25 25 24 24 25 25 26 25 24 22 21 20 19 19 19 19 18 17 16 16 16 16 15 15 14 13 13 13 14 14 13 13 13 14 14 14 14 14 15 15 15
17 18 19 19 19 21 22 24 25 25 24 24 24 25 26 24 23 22 21 20 19 18 18 18 18 16 16 15 16 16 16 15 15 14 14 14 14 14 13 13 13 13 14 14 14 14 14 14 14
17 18 18 18 19 21 23 25 24 24 24 25 25 24 25 23 22 21 20 20 19 18 18 18 17 16 15 16 16 16 16 16 15 14 14 14 14 14 14 13 13 14 14 14 14 13 13 13 13
17 19 18 18 20 22 23 25 25 24 24 24 24 24 24 22 22 21 20 20 19 18 18 17 17 16 16 16 16 16 16 16 15 15 14 14 14 14 14 14 13 14 14 14 14 13 13 13 13
18 17 18 19 20 21 23 25 24 23 23 24 24 24 24 22 21 21 20 19 19 18 18 18 17 16 16 16 17 16 16 16 16 15 15 14 14 14 14 14 13 14 14 14 14 13 13 13 13
17 18 18 19 19 20 23 25 24 23 23 23 24 24 23 20 20 20 20 19 19 18 18 17 17 16 16 16 16 17 16 16 16 15 15 14 14 14 14 14 14 14 14 14 13 13 13 13 14
17 16 16 18 19 21 23 23 24 23 22 22 23 23 21 21 20 20 19 19 19 18 17 17 17 16 16 16 16 16 16 16 15 15 15 14 14 14 14 14 14 14 14 14 13 13 13 13 14
16 15 17 19 20 21 22 22 23 22 22 22 22 23 22 21 20 19 19 19 18 18 18 17 17 16 16 15 15 16 16 16 15 15 15 14 13 13 14 14 14 14 14 14 13 13 13 13 13
16 16 17 19 20 21 20 20 21 21 20 22 22 22 22 21 20 20 20 20 19 18 18 17 17 16 16 15 15 15 15 15 15 14 14 14 13 13 13 14 14 14 14 13 13 13 13 13 14
17 17 18 19 19 19 19 19 19 19 20 21 21 21 22 21 21 20 20 20 20 19 18 17 17 16 16 16 15 15 14 15 15 13 13 14 14 14 13 13 13 13 13 13 13 13 13 13 14
16 17 18 18 18 18 17 17 18 18 18 19 20 20 20 20 20 20 21 21 21 20 19 18 17 16 16 15 15 15 14 14 14 14 13 14 14 13 13 13 12 12 13 13 13 13 13 13 13
16 16 17 17 18 17 17 17 17 17 17 18 18 19 19 19 19 20 20 21 21 20 19 18 17 16 16 16 15 15 14 14 14 14 13 13 13 13 13 13 12 12 12 12 13 13 13 13 13
15 14 15 16 16 17 16 15 16 17 17 17 18 18 19 19 19 19 20 20 21 20 20 19 18 17 16 16 15 15 14 14 14 14 13 13 13 13 13 13 12 12 12 12 13 13 13 13 12
14 13 13 16 17 17 16 14 17 18 18 18 18 18 18 19 19 19 19 20 20 20 20 19 18 17 17 17 16 15 14 14 14 14 13 13 13 13 13 13 12 12 12 12 12 12 12 12 12
13 13 14 16 17 17 16 14 17 18 19 19 19 19 19 19 19 19 19 19 20 20 20 20 19 18 17 17 17 16 15 14 14 14 13 13 13 13 13 12 12 12 12 12 12 12 12 12 12
14 14 15 16 18 16 15 15 16 18 18 18 18 18 18 19 19 19 19 19 20 20 20 20 19 18 17 17 17 15 15 14 14 14 13 13 13 13 13 12 12 12 12 12 12 12 11 11 11
14 13 13 15 16 16 14 14 15 16 16 17 17 18 18 18 18 18 19 19 19 19 20 20 19 18 17 17 16 16 15 14 14 14 13 14 13 13 12 12 12 12 12 11 11 11 11 11 11
13 12 12 14 15 15 13 13 14 15 15 16 17 17 17 18 17 18 18 18 18 19 19 19 19 18 17 17 17 16 14 14 14 13 13 13 13 13 12 12 12 12 12 11 11 11 10 10 10
12 11 12 12 13 13 12 12 14 16 16 16 16 17 17 17 17 17 17 17 18 18 18 18 18 18 17 16 15 14 13 13 13 13 13 13 13 12 12 11 11 11 11 11 11 10 10 9 9
11 13 12 12 10 10 12 10 13 15 16 16 16 17 17 17 17 17 17 17 17 17 18 18 18 17 17 16 15 14 14 14 13 13 13 13 12 12 12 11 11 11 11 11 10 10 9 9 8
11 11 11 10 9 8 10 9 11 14 14 16 16 17 17 17 17 17 17 17 17 17 17 17 17 17 16 16 15 14 14 14 13 13 12 12 12 11 11 11 11 11 11 10 10 9 8 8 7
11 10 9 9 8 6 8 9 10 13 15 16 16 17 17 17 17 17 17 17 17 17 17 17 17 17 16 15 14 13 13 13 13 12 12 12 11 11 11 10 10 10 10 10 9 9 8 7 7
10 8 7 7 7 7 10 11 11 15 16 16 16 16 16 16 16 16 16 16 16 16 16 16 16 16 15 15 13 12 12 12 13 12 12 12 11 11 10 10 10 10 10 9 9 8 7 6 6
9 8 7 8 8 10 12 11 13 16 16 17 16 16 16 16 15 15 15 14 15 15 15 15 15 15 15 13 12 11 11 11 11 11 12 12 11 11 10 9 9 9 9 9 8 7 7 6 5
8 7 8 7 7 6 8 11 13 15 15 15 15 16 15 15 14 14 14 14 14 14 15 15 15 14 13 12 11 10 11 11 11 11 11 11 11 10 9 9 9 9 9 8 7 7 6 5 4
9 9 7 6 5 6 9 11 11 13 13 14 14 14 15 14 14 13 13 12 13 14 14 14 14 13 12 11 10 10 10 10 10 10 10 10 10 10 9 9 9 8 8 7 6 6 5 4 3
8 8 7 7 7 6 7 10 14 13 13 13 13 14 14 13 13 12 12 12 12 13 13 13 13 12 11 10 10 10 10 10 10 9 9 10 10 9 9 9 8 8 7 6 6 5 4 3 2
9 8 7 6 6 7 7 8 13 13 13 13 13 13 13 13 12 11 11 11 11 12 12 12 12 11 10 10 10 10 10 10 9 8 9 9 9 8 8 8 8 7 6 5 4 4 3 2 1
Wind_Speed
17 17 10 4 4 6 10 11 7 4 2 6 8 5 10 10 7 7 6 8 18 19 20 20 21 20 18 16 15 13 11 13 14 14 13 13 13 13 13 13 13 14 13 13 13 13 13 13 13
12 13 6 4 5 7 10 13 6 2 6 8 5 5 9 6 9 9 6 9 18 18 19 19 22 20 19 17 15 13 12 13 14 13 12 12 12 12 13 13 13 13 13 13 12 12 12 12 11
10 12 5 4 6 10 11 4 3 8 7 1 5 5 6 3 8 7 9 9 16 17 19 21 23 20 19 17 16 14 12 12 13 12 11 11 10 10 11 12 12 12 11 11 10 10 10 9 8
6 5 5 7 13 12 13 10 3 5 3 5 4 6 3 7 6 9 12 10 14 16 19 22 22 20 19 17 16 14 13 12 12 11 11 10 8 7 9 11 12 10 9 8 8 8 8 7 6
4 4 8 11 15 14 13 11 7 1 4 4 3 7 2 7 11 12 10 10 13 15 20 23 22 21 19 18 16 14 13 12 11 10 10 10 7 5 9 12 11 9 7 7 7 7 8 7 8
5 5 8 12 15 15 14 14 4 5 8 8 3 6 1 9 11 10 9 8 11 16 18 22 23 22 20 19 18 15 13 11 10 10 10 10 7 5 11 14 12 8 7 7 7 8 8 9 7
7 7 12 13 13 13 12 11 8 7 9 9 5 5 2 9 10 9 9 8 10 16 16 16 19 19 19 19 19 17 13 11 11 10 11 11 9 9 14 14 12 9 8 8 9 9 8 7 6
7 5 12 13 14 13 12 8 6 5 7 8 5 3 2 7 7 8 8 7 9 12 15 13 15 17 16 16 19 19 15 12 11 12 14 12 11 13 15 13 12 11 10 9 8 7 7 6 5
8 7 12 12 11 10 11 10 4 6 5 9 6 4 8 6 6 7 7 5 6 8 13 14 13 14 16 16 17 18 17 13 12 13 13 12 11 12 12 14 13 12 11 9 7 6 5 4 3
6 9 13 11 11 10 9 9 5 3 8 9 9 6 9 9 6 7 8 9 8 7 8 12 14 13 13 14 15 13 14 14 13 13 13 12 9 12 14 14 14 13 11 9 6 4 1 1 2
8 8 10 13 12 11 8 10 8 7 8 8 8 9 9 9 9 8 9 9 12 11 8 6 10 11 11 8 11 9 11 13 14 15 16 11 10 12 13 10 10 10 10 6 4 3 3 6 4
11 10 11 11 9 8 7 8 10 11 10 10 11 9 5 8 8 8 9 9 9 14 13 8 8 9 10 9 7 6 6 8 7 10 13 9 5 5 7 7 9 9 7 5 5 5 7 7 8
14 12 11 9 8 8 9 10 11 12 12 12 11 12 9 5 5 7 8 9 8 11 14 12 10 10 9 9 7 6 4 6 8 9 10 11 4 4 4 5 6 8 8 6 5 6 6 5 6
6 8 11 13 10 8 11 12 12 12 13 14 13 13 12 10 9 10 10 9 8 9 12 13 12 11 10 8 8 7 5 7 9 9 10 13 9 5 4 4 5 7 8 6 6 6 4 4 4
7 9 11 12 12 8 9 14 16 17 16 17 16 14 14 12 12 12 13 10 9 9 11 13 14 12 11 9 8 7 6 8 6 9 12 12 12 10 7 5 4 5 8 9 8 6 5 3 4
6 7 7 9 13 12 11 12 11 13 15 17 17 15 14 14 15 14 14 12 10 9 11 13 13 14 13 10 8 6 5 7 6 10 11 13 15 14 9 5 5 8 10 7 4 5 4 5 5
7 7 10 9 9 7 10 10 10 10 9 9 10 11 11 12 14 15 14 13 11 10 10 12 13 15 15 12 9 7 5 7 7 9 9 12 16 16 11 5 6 10 6 4 5 5 4 4 5
5 8 9 7 4 6 10 11 11 11 12 11 10 10 10 11 11 11 11 12 12 11 10 11 12 14 14 12 8 7 6 7 6 6 9 14 15 16 12 7 8 8 5 4 4 4 4 4 4
10 9 10 10 10 8 11 14 13 13 15 15 13 12 12 12 12 11 10 10 10 10 10 10 12 12 12 12 11 11 8 6 6 6 11 14 15 15 11 6 6 6 6 6 6 4 5 4 4
8 9 11 11 9 10 12 17 15 18 20 18 15 13 13 13 13 13 12 11 12 11 9 10 11 12 12 12 10 7 6 6 6 6 7 12 14 15 13 8 8 8 7 7 6 4 3 3 4
8 9 10 10 12 9 11 13 13 13 16 16 15 14 13 13 14 13 13 13 12 12 11 9 11 13 13 13 9 9 8 6 4 5 5 6 12 13 13 11 8 8 7 6 6 5 4 2 3
7 4 6 7 6 6 6 8 8 8 8 8 11 12 11 11 12 12 13 13 13 13 12 11 11 13 14 15 14 16 11 8 7 6 6 7 9 12 14 13 10 8 7 7 6 6 4 3 2
2 7 6 6 7 7 5 8 11 8 11 10 9 10 10 10 12 11 11 12 12 11 12 12 11 12 14 16 16 15 10 7 10 10 11 9 8 9 13 13 10 8 7 8 7 6 4 3 3
2 2 5 6 4 7 8 10 11 4 7 4 4 4 5 7 8 7 6 7 9 9 9 11 13 13 15 16 16 16 15 15 17 16 14 10 8 8 10 12 9 6 7 8 7 6 5 3 3
5 3 3 4 5 8 9 9 10 6 4 4 5 6 7 8 6 4 5 6 7 9 9 10 13 15 17 17 16 16 15 17 18 17 15 14 11 9 10 11 8 7 6 7 6 5 5 3 2
9 6 4 4 5 4 5 9 8 7 6 6 7 7 7 9 6 5 6 7 8 9 9 10 12 14 16 17 15 13 14 15 13 13 13 12 10 9 10 11 9 7 8 7 5 5 4 3 2
7 7 4 5 7 6 8 8 9 11 13 11 11 9 7 6 4 5 6 8 10 9 9 11 13 13 15 15 13 13 16 16 15 13 12 11 11 12 12 12 10 8 7 6 6 4 5 3 2
6 5 4 4 4 7 9 8 6 6 9 9 5 2 2 1 3 5 6 9 11 10 8 11 13 13 15 15 13 13 15 16 16 14 13 13 14 13 13 11 10 9 8 6 5 3 4 2 2
9 5 5 5 5 5 7 6 2 7 7 7 5 3 2 2 3 4 6 9 12 9 6 9 11 13 15 15 15 15 14 16 15 13 13 14 14 14 13 11 10 9 8 6 5 3 4 2 2
10 10 10 6 7 7 7 9 5 8 6 6 6 6 4 3 2 3 5 9 10 6 5 8 10 14 16 16 16 15 15 15 14 14 14 14 14 12 11 10 9 8 7 5 3 1 2 2 2
Wind_Direction
299 283 268 261 249 235 246 256 255 83 13 10 25 354 312 324 42 101 169 123 124 133 141 146 140 137 134 129 123 116 114 115 110 106 108 109 110 109 103 95 86 82 81 78 74 70 67 65 62
290 288 284 246 242 250 252 242 219 152 65 25 332 250 262 278 96 116 121 120 131 135 144 147 142 141 138 134 128 123 121 121 116 112 110 109 113 113 105 98 92 89 88 86 80 73 69 65 61
265 272 269 240 230 244 268 324 63 96 73 284 270 235 246 7 77 105 133 143 136 138 148 145 146 145 143 140 135 131 129 128 122 115 106 104 114 119 112 105 102 98 95 90 82 75 70 65 63
256 236 239 243 249 245 256 282 75 96 154 213 283 283 159 71 64 103 132 158 142 143 140 145 148 148 147 145 143 140 136 133 126 115 105 98 105 119 121 117 115 109 99 84 71 65 71 72 66
233 251 232 237 245 256 270 275 110 61 260 233 218 294 37 94 102 116 147 163 146 141 136 148 150 154 153 151 148 145 144 140 129 120 111 99 97 123 141 132 126 116 96 73 57 54 70 74 71
212 223 232 236 243 243 248 265 184 195 258 263 226 269 295 127 117 128 142 161 144 130 139 151 157 160 160 157 151 150 152 150 142 134 122 104 88 118 154 142 133 121 98 77 64 67 81 83 75
232 232 241 246 253 251 244 240 188 207 243 262 257 241 228 100 103 129 146 168 139 132 141 151 160 164 164 161 154 153 156 156 154 145 129 115 96 103 136 138 132 118 100 89 84 84 89 87 77
244 255 246 245 255 263 273 271 182 200 260 278 285 263 20 93 121 132 138 144 136 138 146 156 161 166 167 165 159 155 157 158 157 144 136 132 123 119 125 121 120 116 110 103 97 96 101 100 91
251 243 243 242 248 262 272 286 238 166 249 287 275 223 100 96 111 124 126 123 134 150 154 162 166 169 168 167 165 157 156 157 152 149 153 157 162 147 128 123 124 125 124 120 117 121 132 132 113
220 237 238 251 268 283 289 289 288 235 216 237 262 236 134 139 163 174 170 167 164 181 179 169 172 166 162 164 163 163 161 160 170 174 179 198 193 145 130 133 136 140 139 136 140 146 177 138 92
210 235 251 258 274 296 314 322 321 280 262 247 243 233 189 169 182 200 204 190 176 178 194 191 157 155 155 153 168 170 168 167 194 185 185 188 128 125 137 141 149 154 155 157 166 174 65 48 49
243 245 241 260 286 322 311 301 297 286 277 282 288 298 259 184 192 207 214 224 188 172 179 187 154 155 158 159 173 165 162 167 189 169 170 153 145 168 158 152 161 150 131 89 63 53 53 29 31
237 258 273 279 284 291 294 282 280 280 289 290 290 294 297 285 269 268 240 218 213 176 172 176 171 169 168 164 169 168 163 164 169 160 167 153 146 146 111 101 100 97 100 88 64 50 31 24 24
269 275 267 266 263 259 260 262 260 260 266 269 268 269 271 264 258 267 268 236 213 189 170 172 178 174 170 170 172 172 167 169 167 158 173 160 154 128 106 91 87 88 87 72 62 64 34 34 13
302 296 286 266 253 240 256 257 245 247 247 252 251 249 249 247 246 247 251 246 214 196 177 173 179 176 173 177 175 172 171 173 159 160 177 160 138 125 115 112 109 110 97 73 48 43 38 33 5
239 249 252 241 219 219 221 256 255 247 233 233 238 241 242 239 236 239 243 245 232 207 185 181 181 176 173 176 178 176 175 168 159 163 167 149 134 128 118 114 114 105 92 85 67 34 37 32 15
213 235 241 248 175 190 218 254 262 263 263 245 237 237 240 238 232 230 232 235 235 221 195 181 175 174 173 172 177 185 179 165 161 163 156 140 129 127 122 116 113 102 93 87 87 60 45 27 358
203 225 250 251 174 205 241 258 269 284 282 267 255 249 249 250 245 235 231 231 231 227 202 180 170 170 167 166 174 186 183 166 154 142 136 129 132 130 125 123 116 113 107 102 103 108 69 32 345
307 318 307 306 320 306 273 271 268 267 265 258 249 246 247 253 259 256 241 238 242 235 209 183 171 169 164 170 180 187 181 150 127 124 131 135 137 134 132 122 118 116 107 91 76 81 77 28 357
270 282 283 290 298 304 290 281 272 258 253 249 248 245 244 248 251 252 246 231 230 237 218 188 175 172 170 175 180 171 133 112 100 105 118 135 136 135 134 125 123 117 110 98 85 70 86 52 37
252 259 274 292 320 304 289 284 256 250 238 235 236 239 243 248 250 251 249 238 223 225 223 203 186 175 170 162 153 133 109 95 97 111 122 130 134 133 132 128 125 122 115 109 98 81 79 81 57
254 287 295 298 301 288 305 296 267 277 282 239 219 217 226 242 248 246 244 246 232 218 217 212 194 174 163 159 163 164 165 158 160 147 139 136 133 131 129 128 125 120 119 120 114 99 91 81 79
256 36 353 314 295 289 252 260 272 229 252 249 236 217 217 234 245 244 235 237 238 224 212 207 188 167 160 163 169 171 163 139 134 138 145 143 134 127 126 127 125 125 121 117 110 102 87 80 82
242 46 287 264 274 265 218 218 273 222 246 278 340 318 270 261 261 258 256 253 244 234 219 201 179 165 161 168 173 173 166 153 150 154 156 149 139 129 125 126 123 120 118 119 119 114 104 94 91
203 189 254 227 229 248 228 225 253 258 277 299 290 286 294 296 300 319 325 296 268 244 223 200 178 165 164 173 178 177 168 156 157 158 158 152 148 143 137 134 131 125 120 122 123 124 129 124 109
197 197 221 264 263 281 260 243 253 260 258 246 237 235 254 271 290 323 332 320 291 254 219 192 175 165 167 175 178 176 156 152 155 156 156 153 150 144 140 135 130 127 126 129 128 128 132 122 157
176 213 278 324 303 281 251 261 282 270 267 258 239 219 229 258 301 329 329 319 299 265 221 187 173 167 169 172 172 164 149 148 150 150 149 146 142 144 139 133 131 129 129 132 138 139 144 152 199
235 186 179 203 264 275 268 251 265 338 352 347 331 213 212 268 338 339 334 319 299 271 224 184 175 170 165 165 160 149 144 142 145 150 150 144 143 142 136 130 127 125 124 125 124 122 122 135 251
203 211 201 227 249 267 285 262 321 333 321 318 320 342 355 344 340 336 327 308 296 271 208 175 171 162 156 146 138 139 139 140 144 145 140 138 138 137 134 130 128 129 133 133 138 163 158 190 273
202 202 197 218 235 232 266 272 285 292 302 295 294 296 293 288 297 316 312 301 296 272 199 172 160 146 136 132 134 135 136 138 137 134 132 132 132 129 127 126 125 123 117 112 117 133 139 218 255
Height
1508 1509 1510 1511 1511 1511 1506 1493 1480 1481 1484 1485 1486 1487 1488 1487 1490 1500 1498 1497 1496 1497 1499 1502 1505 1507 1508 1510 1511 1512 1513 1514 1515 1518 1520 1522 1523 1524 1525 1525 1525 1525 1525 1525 1526 1527 1529 1530 1531
1507 1508 1510 1508 1510 1513 1501 1485 1480 1482 1485 1487 1489 1490 1490 1487 1488 1493 1495 1497 1496 1497 1499 1502 1505 1507 1509 1510 1512 1513 1514 1514 1516 1517 1519 1521 1524 1525 1526 1526 1526 1526 1526 1527 1528 1529 1530 1530 1531
1505 1507 1508 1504 1505 1507 1496 1479 1478 1480 1486 1490 1490 1488 1488 1487 1489 1492 1494 1497 1497 1498 1500 1502 1505 1507 1509 1511 1512 1514 1514 1515 1516 1517 1519 1521 1524 1526 1527 1527 1528 1528 1529 1529 1529 1530 1531 1531 1532
1504 1507 1506 1504 1501 1492 1487 1481 1479 1482 1487 1489 1490 1488 1487 1488 1491 1493 1495 1497 1498 1499 1500 1503 1506 1507 1509 1511 1513 1514 1515 1516 1516 1518 1519 1522 1524 1526 1527 1528 1529 1530 1530 1530 1531 1531 1531 1532 1532
1503 1503 1503 1501 1496 1488 1482 1478 1480 1485 1487 1488 1489 1488 1487 1488 1490 1493 1496 1498 1499 1500 1500 1503 1506 1508 1509 1511 1513 1514 1515 1516 1517 1519 1520 1522 1524 1526 1528 1529 1530 1531 1531 1531 1532 1532 1532 1532 1533
1502 1499 1502 1500 1491 1484 1481 1479 1479 1483 1487 1487 1488 1489 1489 1488 1490 1493 1496 1498 1499 1499 1500 1503 1505 1507 1509 1511 1513 1514 1515 1516 1518 1519 1521 1522 1524 1526 1528 1529 1531 1531 1532 1532 1532 1533 1533 1533 1533
1498 1496 1496 1492 1488 1483 1477 1476 1477 1482 1486 1487 1487 1488 1488 1488 1489 1492 1495 1498 1500 1499 1500 1502 1504 1506 1509 1511 1512 1514 1515 1516 1518 1519 1521 1523 1524 1526 1527 1529 1530 1531 1532 1533 1533 1533 1533 1533 1533
1494 1492 1490 1489 1487 1483 1475 1474 1475 1480 1484 1486 1486 1487 1488 1490 1490 1492 1495 1498 1499 1499 1499 1501 1503 1505 1507 1509 1511 1513 1514 1516 1517 1519 1521 1523 1524 1526 1527 1528 1529 1531 1532 1532 1532 1532 1532 1532 1531
1491 1493 1490 1485 1483 1480 1475 1474 1475 1478 1483 1485 1485 1487 1488 1490 1491 1492 1494 1496 1498 1499 1500 1500 1502 1504 1506 1508 1510 1512 1513 1515 1517 1519 1521 1523 1524 1525 1526 1528 1529 1530 1531 1532 1532 1532 1531 1531 1530
1488 1489 1484 1479 1477 1476 1474 1474 1475 1477 1480 1484 1485 1485 1485 1487 1490 1491 1492 1494 1496 1498 1500 1501 1501 1503 1505 1507 1509 1510 1512 1514 1516 1518 1520 1522 1524 1524 1525 1527 1528 1529 1529 1531 1531 1531 1530 1530 1529
1483 1483 1479 1477 1476 1476 1475 1476 1476 1478 1479 1480 1482 1483 1484 1485 1487 1489 1490 1491 1492 1494 1497 1500 1501 1502 1504 1505 1507 1509 1510 1512 1515 1516 1519 1521 1523 1524 1525 1525 1526 1527 1528 1529 1530 1529 1529 1529 1528
1479 1477 1476 1475 1475 1476 1477 1478 1478 1478 1479 1480 1480 1480 1481 1481 1483 1485 1487 1489 1490 1490 1493 1497 1499 1500 1502 1504 1506 1508 1509 1511 1513 1516 1517 1519 1520 1523 1524 1524 1525 1526 1527 1528 1528 1528 1528 1527 1526
1477 1477 1475 1474 1474 1476 1478 1478 1479 1478 1478 1477 1477 1477 1478 1478 1480 1482 1484 1486 1488 1488 1488 1492 1495 1497 1500 1502 1504 1506 1508 1509 1512 1514 1516 1518 1519 1521 1522 1523 1525 1525 1526 1526 1527 1527 1526 1525 1523
1475 1476 1475 1474 1473 1474 1476 1476 1478 1475 1475 1475 1475 1474 1474 1475 1477 1479 1481 1483 1484 1486 1486 1488 1491 1493 1496 1499 1501 1503 1506 1508 1510 1511 1514 1517 1518 1520 1521 1522 1523 1524 1525 1525 1525 1524 1524 1522 1521
1478 1479 1476 1472 1470 1471 1475 1473 1471 1469 1470 1470 1469 1470 1470 1471 1473 1475 1477 1478 1480 1482 1483 1484 1487 1489 1492 1495 1497 1500 1503 1506 1508 1510 1512 1515 1516 1518 1519 1521 1522 1523 1523 1523 1523 1522 1521 1520 1518
1479 1480 1478 1465 1463 1466 1474 1472 1464 1462 1461 1462 1463 1464 1465 1466 1467 1469 1471 1473 1475 1477 1478 1480 1482 1484 1487 1490 1492 1496 1499 1503 1505 1507 1510 1512 1513 1515 1517 1518 1520 1521 1521 1522 1522 1521 1519 1517 1515
1477 1478 1472 1462 1457 1461 1466 1466 1460 1457 1456 1456 1457 1458 1458 1459 1460 1462 1464 1466 1469 1472 1474 1475 1477 1479 1482 1485 1487 1491 1495 1499 1502 1504 1506 1507 1509 1512 1514 1516 1517 1519 1519 1520 1520 1519 1517 1515 1513
1470 1470 1465 1461 1456 1459 1462 1461 1458 1456 1454 1453 1453 1453 1453 1453 1454 1455 1457 1459 1462 1465 1468 1469 1471 1474 1477 1480 1483 1486 1490 1494 1497 1500 1501 1503 1506 1508 1511 1513 1515 1517 1518 1518 1517 1517 1515 1514 1512
1466 1470 1471 1464 1457 1459 1459 1457 1455 1452 1450 1448 1447 1448 1448 1448 1449 1450 1451 1453 1455 1458 1460 1462 1464 1467 1471 1474 1477 1480 1484 1488 1491 1494 1496 1499 1502 1505 1508 1510 1512 1514 1515 1516 1515 1515 1514 1513 1512
1468 1472 1472 1466 1460 1459 1458 1453 1449 1444 1439 1439 1440 1441 1442 1442 1443 1444 1446 1447 1448 1450 1453 1456 1457 1461 1464 1467 1471 1475 1479 1482 1485 1488 1492 1495 1498 1501 1504 1507 1509 1511 1512 1513 1514 1513 1513 1512 1511
1471 1474 1472 1470 1465 1463 1462 1450 1439 1429 1427 1429 1431 1433 1435 1436 1436 1437 1439 1440 1441 1443 1446 1449 1451 1454 1457 1462 1467 1470 1473 1475 1479 1483 1487 1491 1494 1497 1500 1503 1506 1507 1509 1511 1511 1512 1511 1510 1510
1472 1467 1468 1470 1474 1472 1463 1464 1437 1428 1424 1422 1423 1425 1427 1429 1430 1430 1431 1432 1433 1435 1439 1442 1446 1448 1450 1455 1459 1461 1463 1466 1471 1476 1481 1486 1491 1494 1497 1500 1502 1504 1506 1508 1509 1510 1509 1509 1508
1469 1470 1474 1474 1476 1478 1469 1470 1437 1426 1424 1420 1418 1418 1420 1422 1423 1423 1423 1424 1426 1428 1431 1435 1439 1440 1442 1447 1451 1455 1458 1461 1466 1471 1477 1482 1486 1490 1493 1496 1499 1502 1504 1505 1507 1507 1507 1507 1506
1469 1475 1478 1477 1480 1484 1467 1463 1439 1424 1418 1414 1415 1416 1417 1418 1418 1418 1418 1419 1420 1422 1424 1427 1430 1432 1436 1440 1444 1448 1451 1454 1459 1465 1471 1476 1481 1485 1489 1493 1496 1499 1501 1503 1504 1505 1505 1504 1504
1472 1480 1485 1482 1482 1473 1453 1447 1431 1415 1411 1412 1413 1414 1415 1415 1415 1414 1414 1414 1415 1415 1417 1419 1421 1424 1428 1434 1438 1442 1445 1448 1452 1458 1464 1470 1475 1480 1485 1489 1493 1496 1498 1500 1501 1501 1501 1501 1500
1473 1476 1481 1478 1467 1452 1439 1435 1420 1407 1406 1406 1408 1410 1411 1412 1412 1411 1410 1410 1410 1410 1411 1412 1414 1417 1422 1427 1433 1438 1441 1444 1448 1455 1460 1466 1471 1476 1481 1486 1490 1493 1495 1497 1498 1498 1498 1497 1497
1471 1476 1473 1476 1472 1470 1449 1429 1415 1406 1403 1401 1401 1403 1405 1407 1408 1408 1407 1407 1406 1405 1405 1406 1409 1412 1416 1422 1429 1433 1436 1439 1445 1452 1458 1463 1468 1473 1478 1483 1487 1490 1492 1494 1494 1494 1494 1494 1493
1466 1469 1477 1483 1485 1468 1440 1427 1420 1407 1404 1401 1398 1398 1401 1403 1404 1404 1404 1403 1401 1400 1400 1401 1403 1406 1411 1418 1424 1428 1432 1436 1443 1449 1454 1459 1464 1470 1475 1480 1484 1487 1489 1490 1491 1491 1491 1490 1489
1468 1470 1471 1472 1469 1469 1452 1428 1405 1406 1403 1403 1401 1399 1400 1402 1402 1402 1401 1399 1397 1394 1394 1396 1399 1403 1408 1413 1418 1424 1429 1435 1441 1446 1451 1456 1462 1468 1473 1478 1482 1484 1486 1487 1488 1488 1487 1486 1485
1459 1463 1467 1473 1468 1459 1452 1428 1406 1403 1400 1400 1400 1400 1399 1400 1399 1398 1397 1396 1393 1390 1390 1391 1395 1399 1403 1408 1415 1421 1428 1433 1438 1444 1449 1455 1460 1467 1472 1476 1479 1481 1483 1484 1485 1484 1483 1482 1481